STARLINK-3368

decayed
NORAD ID: 51107 Int'l Des: 2022-005 Owner: SPXS Country: US Constellation: starlink
LEOCIRCULAR
グループ

STARLINK-3368について

説明を読み込み中...

高度履歴

Altitude vs Time

uPlot chart will show altitude changes over time

軌道要素

1 51107U 22005D 24360.31536888 .31805419 12462-4 20477-2 0 9992
2 51107 53.1968 86.8719 0005376 352.5164 118.9943 16.40967245163867
Epoch: Dec 25, 2024 • Age: 6339 hours

現在のステータス

Position data unavailable
打ち上げ日 Jan 19, 2022
運用期間 3.6 years
落下予定日 Dec 25, 2024
タイプ internet

技術仕様

分類 Payload
質量 297.00 kg
乾燥質量 275.00 kg
総質量 297.00 kg
長さ 0.20 m
直径 2.80 m
スパン 9.00 m
形状 Box + pan
製造者 SPXS
バスタイプ Starlink
フェーズステータス Reentered
所有者/国 SPXS/US

大規模コンステレーション

Loading constellations...